CAPE
13 3 2 2 2 0 0 0 0 12 16 4 0 3 9 1 0 0 0 0 0 0 0 0 0 0 0 0 0 0 0 0 0 2 0 0 0 0 0 0 0 0 0 0 1 3 1 0 0 0 0 0 0 0
17 4 4 3 4 3 0 0 0 0 0 8 10 1 2 0 0 0 0 0 0 0 0 0 0 1 1 0 0 0 0 0 0 0 0 0 0 0 0 0 0 0 0 0 0 0 0 0 0 0 0 0 0 0
15 7 2 6 4 5 0 0 0 1 1 0 0 0 0 0 0 0 0 0 0 0 0 0 0 1 0 1 0 0 0 0 0 0 0 0 0 0 0 0 0 0 0 0 0 0 0 0 0 0 0 0 0 0
10 7 5 4 2 1 1 0 0 1 2 1 0 0 0 14 0 0 0 0 0 0 0 0 0 1 1 1 0 0 1 0 0 0 0 0 0 0 0 0 0 0 0 0 0 0 0 0 0 0 0 0 0 0
8 7 4 3 3 2 0 0 0 1 5 18 0 0 0 0 0 0 0 0 0 0 0 0 0 0 0 0 0 0 1 1 1 0 0 0 0 0 0 0 0 0 0 0 0 0 0 0 0 0 0 0 0 0
3 7 4 2 2 2 1 0 0 0 0 1 2 8 7 0 0 0 0 0 0 0 0 0 0 0 0 0 0 0 1 2 1 0 0 0 0 0 1 0 0 0 0 0 0 0 0 0 0 0 0 0 0 0
0 6 5 1 0 1 0 0 0 0 5 0 0 1 0 0 0 0 0 0 3 1 0 0 0 0 0 0 0 0 1 0 0 0 0 0 0 0 0 0 0 0 0 0 0 0 0 0 0 0 0 0 0 0
5 1 4 1 0 0 0 0 0 0 1 0 0 0 1 1 2 0 0 0 0 0 0 0 0 0 0 0 0 0 0 0 0 0 0 0 0 0 0 0 0 0 0 0 0 0 0 0 0 0 0 0 0 0
10 3 1 3 0 0 0 0 0 0 3 0 0 0 0 0 0 0 0 0 0 0 0 0 0 0 0 0 0 0 0 0 0 0 0 0 0 0 0 0 0 0 0 0 0 0 0 0 0 0 0 0 0 0
7 7 1 1 0 0 0 0 0 0 0 0 0 0 0 0 0 0 0 0 0 0 0 0 0 0 0 0 0 0 0 0 0 0 0 0 0 0 0 0 0 0 0 0 0 0 0 0 0 0 0 0 0 0
6 8 8 3 0 0 0 0 0 0 0 0 0 0 0 0 0 0 0 0 0 0 0 0 0 0 0 0 0 0 0 0 0 0 0 0 0 0 0 0 0 0 0 0 0 0 0 0 0 0 0 0 0 0
7 16 5 5 0 2 1 0 0 0 0 0 0 0 0 0 0 0 0 0 0 0 0 0 0 0 0 0 0 0 0 0 0 0 0 0 0 0 0 0 0 0 0 0 0 0 0 0 0 0 0 0 0 0
8 7 5 2 0 4 2 1 0 0 0 0 0 0 0 0 0 0 0 0 0 0 0 0 0 0 0 0 0 0 0 0 0 0 0 0 0 0 0 0 0 0 0 0 0 0 0 0 0 0 0 0 0 0
2 1 6 0 0 1 0 0 0 0 0 0 0 0 0 0 0 0 0 0 0 0 0 0 0 0 0 0 0 0 0 0 0 0 0 0 0 0 0 0 0 0 0 0 0 0 0 0 0 0 0 0 0 0
3 4 0 0 2 2 0 0 0 0 0 0 0 0 0 0 0 0 0 0 0 0 0 0 0 0 0 0 0 0 0 0 0 0 0 0 0 0 0 0 0 0 0 0 0 0 0 0 0 0 0 0 0 0
0 0 0 0 2 0 0 0 0 0 0 0 0 0 0 0 0 0 0 0 0 0 0 0 0 0 0 0 0 0 0 0 0 0 0 0 0 0 0 0 0 0 0 0 0 0 0 0 0 0 0 0 0 0
15 0 0 0 1 0 0 0 0 0 0 0 0 0 0 0 0 0 0 0 0 0 0 0 0 0 0 0 0 0 0 0 0 0 0 0 0 0 0 0 0 0 0 0 0 0 0 0 0 0 0 0 0 0
10 0 0 0 0 0 0 0 0 0 0 0 0 0 0 0 0 0 0 0 0 0 0 0 0 0 0 0 0 0 0 0 0 0 0 0 0 0 0 0 0 0 0 0 0 0 0 0 0 0 0 0 0 0
4 0 0 0 0 0 0 0 0 0 0 0 0 0 0 0 0 0 0 0 0 0 0 0 0 0 0 0 0 0 0 0 0 0 0 0 0 0 0 0 0 0 0 0 0 0 0 0 0 0 0 0 0 0
5 0 0 2 0 0 0 0 0 0 0 0 0 0 0 0 0 0 0 0 0 0 0 0 0 0 0 0 0 0 0 0 0 0 0 0 0 0 0 0 0 0 0 0 0 0 0 0 0 0 0 0 0 0
0 1 0 0 0 0 0 0 0 0 0 0 0 0 0 0 0 0 0 0 0 0 0 0 0 0 0 0 0 0 0 0 0 0 0 0 0 0 0 0 0 0 0 0 0 0 0 0 0 0 0 0 0 0
0 0 0 0 0 0 0 0 0 0 0 0 0 0 0 0 0 0 0 0 0 0 0 0 0 0 0 0 0 0 0 0 0 0 0 0 0 0 0 0 0 0 0 0 0 0 0 0 0 0 0 0 0 0
0 0 0 0 0 0 0 0 0 0 0 0 0 0 0 0 0 0 0 0 0 0 0 0 0 0 0 0 0 0 0 0 0 0 0 0 0 0 0 0 0 0 0 0 0 0 0 0 0 0 0 0 0 0
0 0 0 0 0 0 0 0 0 0 0 0 0 0 0 0 0 0 0 0 0 0 0 0 0 0 0 0 0 0 0 0 0 0 0 0 0 0 0 0 0 0 0 0 0 0 0 0 0 0 0 0 0 0
0 0 0 0 0 0 0 0 0 0 0 0 0 0 0 0 0 0 0 0 0 0 0 0 0 0 0 0 0 0 0 0 0 0 0 0 0 0 0 0 0 0 0 0 0 0 0 0 0 0 0 0 0 0
0 0 0 0 0 0 0 0 0 0 0 0 0 0 0 0 0 0 0 0 0 0 0 0 0 0 0 0 0 0 0 0 0 0 0 0 0 0 0 0 0 0 0 0 0 0 0 0 0 0 0 0 0 0
0 0 0 0 0 0 0 0 0 0 0 0 0 0 0 0 0 0 0 0 0 0 0 0 0 0 0 0 0 0 0 0 0 0 0 0 0 0 0 0 0 0 0 0 0 0 0 0 0 0 0 0 0 0
0 0 0 0 0 0 0 0 0 0 0 0 0 0 0 0 0 0 0 0 0 0 0 0 0 0 0 0 0 0 0 0 0 0 0 0 0 0 0 0 0 0 0 0 0 0 0 0 0 0 0 0 0 0
0 0 0 0 0 0 0 0 0 0 0 0 0 0 0 0 0 0 0 0 0 0 0 0 0 0 0 0 0 0 0 0 0 0 0 0 0 0 0 0 0 0 0 0 0 0 0 0 0 0 0 0 0 0
0 0 0 0 0 0 0 0 0 0 0 0 0 0 0 0 0 0 0 0 0 0 0 0 0 0 0 0 0 0 0 0 0 0 0 0 0 0 0 0 0 0 0 0 0 0 0 0 0 0 0 0 0 0
0 0 0 0 0 0 0 0 0 0 0 0 0 0 0 0 0 0 0 0 0 0 0 0 0 0 0 0 0 0 0 0 0 0 0 0 0 0 0 0 0 0 0 0 0 0 0 0 0 0 0 0 0 0
0 0 0 0 0 0 0 0 0 0 0 0 0 0 0 0 0 0 0 0 0 0 0 0 0 0 0 0 0 0 0 0 0 0 0 0 0 0 0 0 0 0 0 0 0 0 0 0 0 0 0 0 0 0
0 0 0 0 0 0 0 0 0 0 0 0 0 0 0 0 0 0 0 0 0 0 0 0 0 0 0 0 0 0 0 0 0 0 0 0 0 0 0 0 0 0 0 0 0 0 0 0 0 0 0 0 0 0
CIN
-1 -0 -0 -0 -0 -5 -0 -0 -0 -3 -3 -5 -0 -23 -23 -16 -0 -0 -0 -0 -0 -0 -0 -0 -0 -0 -0 -0 -0 -0 -0 -0 -0 -0 -0 -0 -0 -0 -0 -0 -0 -0 -0 -1 -0 -3 -1 -0 -0 -0 -0 -0 -0 -0
-0 -0 -0 -0 -0 -0 -0 -0 -0 -0 -0 -7 -4 -9 -7 -2 -0 -0 -0 -0 -0 -0 -0 -0 -0 -0 -0 -0 -0 -0 -0 -0 -0 -0 -0 -0 -0 -0 -0 -0 -0 -0 -0 -0 -0 -0 -0 -0 -0 -0 -0 -0 -0 -0
-0 -0 -0 -0 -0 -0 -0 -0 -0 -0 -0 -0 -0 -0 -0 -0 -0 -0 -0 -0 -0 -0 -0 -0 -0 -0 -0 -0 -0 -0 -0 -0 -0 -0 -0 -0 -0 -0 -0 -0 -0 -0 -0 -0 -0 -0 -0 -0 -0 -0 -0 -0 -0 -0
-0 -0 -0 -0 -0 -0 -0 -0 -0 -0 -0 -0 -0 -0 -0 -1 -0 -0 -0 -0 -0 -0 -0 -0 -0 -0 -0 -0 -0 -0 -0 -0 -0 -0 -0 -0 -0 -0 -0 -0 -0 -0 -0 -0 -0 -0 -0 -0 -0 -0 -0 -0 -0 -0
-0 -0 -0 -0 -0 -0 -0 -0 -0 -0 -0 -0 -0 -0 -0 -0 -0 -0 -0 -0 -0 -0 -0 -0 -0 -0 -0 -0 -0 -0 -0 -0 -0 -0 -0 -0 -0 -0 -0 -0 -0 -0 -0 -0 -0 -0 -0 -0 -0 -0 -0 -0 -0 -0
-0 -0 -0 -0 -0 -0 -0 -0 -0 -0 -0 -0 -0 -1 -1 -0 -0 -0 -0 -0 -0 -0 -0 -0 -0 -0 -0 -0 -0 -0 -0 -0 -0 -0 -0 -0 -0 -1 -3 -0 -0 -0 -0 -0 -0 -0 -0 -0 -0 -0 -0 -0 -0 -0
-0 -0 -0 -0 -0 -0 -0 -0 -0 -0 -2 -0 -0 -0 -0 -0 -0 -0 -0 -0 -0 -0 -0 -0 -0 -0 -0 -0 -0 -0 -0 -0 -0 -0 -0 -0 -0 -0 -0 -0 -0 -0 -0 -0 -0 -0 -0 -0 -0 -0 -0 -0 -0 -0
-0 -0 -0 -0 -0 -0 -0 -0 -0 -0 -0 -0 -0 -0 -0 -0 -0 -0 -0 -0 -0 -0 -0 -0 -0 -0 -0 -0 -0 -0 -0 -0 -0 -0 -0 -0 -0 -0 -0 -0 -0 -0 -0 -0 -0 -0 -0 -0 -0 -0 -0 -0 -0 -0
-0 -0 -0 -0 -0 -0 -0 -0 -0 -0 -1 -0 -0 -0 -0 -0 -0 -0 -0 -0 -0 -0 -0 -0 -0 -0 -0 -0 -0 -0 -0 -0 -0 -0 -0 -0 -0 -0 -0 -0 -0 -0 -0 -0 -0 -0 -0 -0 -0 -0 -0 -0 -0 -0
-0 -0 -1 -0 -0 -0 -0 -0 -0 -0 -0 -0 -0 -0 -0 -0 -0 -0 -0 -0 -0 -0 -0 -0 -0 -0 -0 -0 -0 -0 -0 -0 -0 -0 -0 -0 -0 -0 -0 -0 -0 -0 -0 -0 -0 -0 -0 -0 -0 -0 -0 -0 -0 -0
-1 -0 -0 -0 -0 -0 -0 -0 -0 -0 -0 -0 -0 -0 -0 -0 -0 -0 -0 -0 -0 -0 -0 -0 -0 -0 -0 -0 -0 -0 -0 -0 -0 -0 -0 -0 -0 -0 -0 -0 -0 -0 -0 -0 -0 -0 -0 -0 -0 -0 -0 -0 -0 -0
-1 -0 -1 -1 -0 -0 -0 -0 -0 -0 -0 -0 -0 -0 -0 -0 -0 -0 -0 -0 -0 -0 -0 -0 -0 -0 -0 -0 -0 -0 -0 -0 -0 -0 -0 -0 -0 -0 -0 -0 -0 -0 -0 -0 -0 -0 -0 -0 -0 -0 -0 -0 -0 -0
-0 -1 -0 -3 -0 -0 -0 -0 -0 -0 -0 -0 -0 -0 -0 -0 -0 -0 -0 -0 -0 -0 -0 -0 -0 -0 -0 -0 -0 -0 -0 -0 -0 -0 -0 -0 -0 -0 -0 -0 -0 -0 -0 -0 -0 -0 -0 -0 -0 -0 -0 -0 -0 -0
-0 -0 -1 -0 -0 -0 -0 -0 -0 -0 -0 -0 -0 -0 -0 -0 -0 -0 -0 -0 -0 -0 -0 -0 -0 -0 -0 -0 -0 -0 -0 -0 -0 -0 -0 -0 -0 -0 -0 -0 -0 -0 -0 -0 -0 -0 -0 -0 -0 -0 -0 -0 -0 -0
-1 -0 -0 -0 -0 -0 -0 -0 -0 -0 -0 -0 -0 -0 -0 -0 -0 -0 -0 -0 -0 -0 -0 -0 -0 -0 -0 -0 -0 -0 -0 -0 -0 -0 -0 -0 -0 -0 -0 -0 -0 -0 -0 -0 -0 -0 -0 -0 -0 -0 -0 -0 -0 -0
-2 -0 -0 -0 -0 -0 -0 -0 -0 -0 -0 -0 -0 -0 -0 -0 -0 -0 -0 -0 -0 -0 -0 -0 -0 -0 -0 -0 -0 -0 -0 -0 -0 -0 -0 -0 -0 -0 -0 -0 -0 -0 -0 -0 -0 -0 -0 -0 -0 -0 -0 -0 -0 -0
-0 -0 -0 -0 -0 -0 -0 -0 -0 -0 -0 -0 -0 -0 -0 -0 -0 -0 -0 -0 -0 -0 -0 -0 -0 -0 -0 -0 -0 -0 -0 -0 -0 -0 -0 -0 -0 -0 -0 -0 -0 -0 -0 -0 -0 -0 -0 -0 -0 -0 -0 -0 -0 -0
-2 -0 -0 -0 -0 -0 -0 -0 -0 -0 -0 -0 -0 -0 -0 -0 -0 -0 -0 -0 -0 -0 -0 -0 -0 -0 -0 -0 -0 -0 -0 -0 -0 -0 -0 -0 -0 -0 -0 -0 -0 -0 -0 -0 -0 -0 -0 -0 -0 -0 -0 -0 -0 -0
-2 -0 -0 -0 -0 -0 -0 -0 -0 -0 -0 -0 -0 -0 -0 -0 -0 -0 -0 -0 -0 -0 -0 -0 -0 -0 -0 -0 -0 -0 -0 -0 -0 -0 -0 -0 -0 -0 -0 -0 -0 -0 -0 -0 -0 -0 -0 -0 -0 -0 -0 -0 -0 -0
-2 -0 -0 -0 -0 -0 -0 -0 -0 -0 -0 -0 -0 -0 -0 -0 -0 -0 -0 -0 -0 -0 -0 -0 -0 -0 -0 -0 -0 -0 -0 -0 -0 -0 -0 -0 -0 -0 -0 -0 -0 -0 -0 -0 -0 -0 -0 -0 -0 -0 -0 -0 -0 -0
-0 -0 -0 -0 -0 -0 -0 -0 -0 -0 -0 -0 -0 -0 -0 -0 -0 -0 -0 -0 -0 -0 -0 -0 -0 -0 -0 -0 -0 -0 -0 -0 -0 -0 -0 -0 -0 -0 -0 -0 -0 -0 -0 -0 -0 -0 -0 -0 -0 -0 -0 -0 -0 -0
-0 -0 -0 -0 -0 -0 -0 -0 -0 -0 -0 -0 -0 -0 -0 -0 -0 -0 -0 -0 -0 -0 -0 -0 -0 -0 -0 -0 -0 -0 -0 -0 -0 -0 -0 -0 -0 -0 -0 -0 -0 -0 -0 -0 -0 -0 -0 -0 -0 -0 -0 -0 -0 -0
-0 -0 -0 -0 -0 -0 -0 -0 -0 -0 -0 -0 -0 -0 -0 -0 -0 -0 -0 -0 -0 -0 -0 -0 -0 -0 -0 -0 -0 -0 -0 -0 -0 -0 -0 -0 -0 -0 -0 -0 -0 -0 -0 -0 -0 -0 -0 -0 -0 -0 -0 -0 -0 -0
-0 -0 -0 -0 -0 -0 -0 -0 -0 -0 -0 -0 -0 -0 -0 -0 -0 -0 -0 -0 -0 -0 -0 -0 -0 -0 -0 -0 -0 -0 -0 -0 -0 -0 -0 -0 -0 -0 -0 -0 -0 -0 -0 -0 -0 -0 -0 -0 -0 -0 -0 -0 -0 -0
-0 -0 -0 -0 -0 -0 -0 -0 -0 -0 -0 -0 -0 -0 -0 -0 -0 -0 -0 -0 -0 -0 -0 -0 -0 -0 -0 -0 -0 -0 -0 -0 -0 -0 -0 -0 -0 -0 -0 -0 -0 -0 -0 -0 -0 -0 -0 -0 -0 -0 -0 -0 -0 -0
-0 -0 -0 -0 -0 -0 -0 -0 -0 -0 -0 -0 -0 -0 -0 -0 -0 -0 -0 -0 -0 -0 -0 -0 -0 -0 -0 -0 -0 -0 -0 -0 -0 -0 -0 -0 -0 -0 -0 -0 -0 -0 -0 -0 -0 -0 -0 -0 -0 -0 -0 -0 -0 -0
-0 -0 -0 -0 -0 -0 -0 -0 -0 -0 -0 -0 -0 -0 -0 -0 -0 -0 -0 -0 -0 -0 -0 -0 -0 -0 -0 -0 -0 -0 -0 -0 -0 -0 -0 -0 -0 -0 -0 -0 -0 -0 -0 -0 -0 -0 -0 -0 -0 -0 -0 -0 -0 -0
-0 -0 -0 -0 -0 -0 -0 -0 -0 -0 -0 -0 -0 -0 -0 -0 -0 -0 -0 -0 -0 -0 -0 -0 -0 -0 -0 -0 -0 -0 -0 -0 -0 -0 -0 -0 -0 -0 -0 -0 -0 -0 -0 -0 -0 -0 -0 -0 -0 -0 -0 -0 -0 -0
-0 -0 -0 -0 -0 -0 -0 -0 -0 -0 -0 -0 -0 -0 -0 -0 -0 -0 -0 -0 -0 -0 -0 -0 -0 -0 -0 -0 -0 -0 -0 -0 -0 -0 -0 -0 -0 -0 -0 -0 -0 -0 -0 -0 -0 -0 -0 -0 -0 -0 -0 -0 -0 -0
-0 -0 -0 -0 -0 -0 -0 -0 -0 -0 -0 -0 -0 -0 -0 -0 -0 -0 -0 -0 -0 -0 -0 -0 -0 -0 -0 -0 -0 -0 -0 -0 -0 -0 -0 -0 -0 -0 -0 -0 -0 -0 -0 -0 -0 -0 -0 -0 -0 -0 -0 -0 -0 -0
-0 -0 -0 -0 -0 -0 -0 -0 -0 -0 -0 -0 -0 -0 -0 -0 -0 -0 -0 -0 -0 -0 -0 -0 -0 -0 -0 -0 -0 -0 -0 -0 -0 -0 -0 -0 -0 -0 -0 -0 -0 -0 -0 -0 -0 -0 -0 -0 -0 -0 -0 -0 -0 -0
-0 -0 -0 -0 -0 -0 -0 -0 -0 -0 -0 -0 -0 -0 -0 -0 -0 -0 -0 -0 -0 -0 -0 -0 -0 -0 -0 -0 -0 -0 -0 -0 -0 -0 -0 -0 -0 -0 -0 -0 -0 -0 -0 -0 -0 -0 -0 -0 -0 -0 -0 -0 -0 -0
-0 -0 -0 -0 -0 -0 -0 -0 -0 -0 -0 -0 -0 -0 -0 -0 -0 -0 -0 -0 -0 -0 -0 -0 -0 -0 -0 -0 -0 -0 -0 -0 -0 -0 -0 -0 -0 -0 -0 -0 -0 -0 -0 -0 -0 -0 -0 -0 -0 -0 -0 -0 -0 -0
Wind_Speed
38 29 29 26 8 11 11 9 10 8 15 18 19 10 10 12 12 14 15 19 16 12 11 11 12 20 18 21 21 18 18 19 21 24 27 29 34 33 35 35 33 35 36 38 37 42 50 32 28 32 33 39 36 33
38 29 28 26 22 9 7 8 14 14 14 15 20 20 19 17 16 16 15 15 17 15 12 16 12 12 12 14 16 16 19 18 18 23 27 25 30 26 32 39 29 40 39 41 40 42 36 34 37 33 32 36 38 39
34 30 26 24 21 16 8 7 12 13 11 17 22 21 21 19 18 17 16 17 17 15 16 15 16 15 14 13 14 20 24 22 23 21 24 26 31 27 36 37 36 35 36 41 42 42 43 40 40 40 39 39 37 32
27 27 24 23 20 18 14 12 10 10 17 12 17 21 16 9 10 15 17 18 16 15 18 17 16 17 17 17 16 17 19 18 18 19 27 30 34 28 36 36 37 37 31 37 41 41 40 42 45 42 36 32 32 27
20 20 22 19 20 18 14 12 6 16 19 20 10 13 19 10 12 14 15 17 17 15 16 20 21 21 21 21 22 24 23 22 22 25 27 29 28 28 30 33 39 33 36 37 41 37 35 39 33 29 33 30 26 22
17 15 16 17 15 18 18 14 12 14 26 21 18 13 9 6 7 16 17 18 19 18 17 18 18 17 19 19 17 16 18 22 19 24 28 24 26 23 32 35 23 29 31 35 40 34 33 32 26 25 29 24 26 22
14 13 14 13 11 9 14 17 15 14 15 23 21 16 12 11 12 14 13 17 20 17 20 22 20 17 16 16 17 18 15 18 14 17 20 24 25 22 28 33 21 18 23 28 29 27 31 27 30 23 22 19 18 16
10 12 12 16 13 7 4 7 17 16 16 19 20 20 19 15 11 12 20 21 17 14 17 20 20 18 20 17 17 17 18 17 16 19 19 21 21 16 22 21 22 23 25 27 27 27 27 22 21 23 19 13 16 16
9 9 10 15 19 14 14 18 19 15 15 15 15 14 13 13 11 15 17 17 17 13 9 12 15 21 20 17 17 16 18 21 19 21 20 20 18 15 11 8 8 10 16 18 22 23 21 20 19 15 13 11 12 11
13 10 9 12 14 18 20 19 18 14 12 11 13 13 13 13 9 11 9 9 15 18 16 15 14 16 21 21 21 22 21 22 26 22 21 21 27 24 17 11 8 5 8 8 18 18 15 15 12 11 11 11 10 10
19 17 15 17 17 17 18 21 18 13 15 14 13 12 13 15 14 14 11 12 11 8 12 16 15 17 18 18 17 19 20 22 26 24 24 28 29 24 14 13 11 7 4 5 13 16 10 12 7 8 8 9 9 9
19 20 23 20 19 23 24 24 21 14 13 12 13 14 14 14 12 10 10 11 9 10 11 12 10 10 16 17 17 18 20 19 22 23 25 29 24 18 14 12 10 7 5 8 12 12 12 10 8 8 9 10 11 12
21 22 22 22 21 24 25 25 21 16 14 14 13 12 12 11 8 9 9 8 9 10 9 11 12 12 13 11 11 17 22 23 22 23 26 27 24 19 15 12 9 9 9 10 11 11 11 9 9 9 10 11 10 11
22 22 22 20 20 26 25 23 19 15 14 12 13 12 11 10 7 6 5 8 11 12 10 11 12 11 13 12 13 16 16 15 23 28 31 25 19 12 8 7 6 4 6 7 8 9 9 8 8 10 9 8 9 10
22 23 22 15 20 25 24 21 18 15 12 12 12 12 8 9 8 9 9 10 10 10 12 15 15 13 13 13 15 15 18 19 18 21 16 17 9 6 4 3 3 3 4 6 8 9 9 8 9 9 9 9 9 10
21 24 17 16 24 24 20 20 16 12 13 11 10 13 15 15 13 12 12 12 9 10 13 15 13 12 11 13 13 14 18 21 22 18 18 13 9 7 5 3 3 4 4 7 8 10 10 11 12 12 12 11 11 12
18 19 16 20 25 22 21 17 14 13 12 12 14 16 17 20 20 19 16 15 8 9 12 12 13 10 12 14 17 15 19 22 21 20 16 12 10 8 7 7 7 8 8 9 10 10 11 11 12 13 13 12 13 14
22 18 17 20 22 23 21 18 16 15 15 15 19 20 19 20 21 21 18 13 11 13 13 15 14 14 15 19 24 24 22 21 20 18 15 13 14 13 11 11 11 11 11 11 11 11 11 11 12 13 14 14 14 15
23 20 17 17 19 22 22 20 18 21 20 20 20 20 20 21 20 21 19 14 16 16 16 17 18 20 21 20 21 22 22 21 21 16 16 16 16 16 14 14 13 13 12 12 11 12 12 12 13 15 15 14 15 16
23 19 17 17 19 21 22 21 18 21 24 23 22 21 22 22 22 21 19 16 17 19 19 21 23 23 20 19 19 21 21 18 18 19 20 18 17 17 16 15 14 13 14 14 14 15 15 15 15 15 15 15 17 17
20 18 18 19 21 19 21 21 21 23 23 24 25 24 25 23 23 23 21 16 19 21 24 24 25 24 20 20 21 21 21 17 17 19 21 19 16 16 16 15 14 14 14 15 15 15 15 15 16 14 15 16 16 16
22 15 21 20 21 21 23 21 23 22 24 26 26 25 27 27 25 23 19 21 24 25 23 26 23 22 20 21 22 21 21 17 18 19 19 17 17 16 16 14 14 15 15 15 15 16 16 16 15 15 15 15 15 16
18 20 22 21 23 23 25 20 24 24 26 26 25 27 26 25 23 20 24 23 25 23 23 22 21 23 22 21 21 21 20 18 18 18 18 18 18 17 17 16 15 16 17 18 17 17 17 16 15 15 15 16 16 17
18 21 23 23 19 24 22 23 23 24 25 27 28 29 27 25 23 25 26 26 26 25 24 21 20 22 21 20 19 20 19 17 17 17 17 17 18 19 19 20 19 18 18 21 18 16 16 16 16 16 16 16 17 17
22 22 21 23 21 23 25 26 26 26 30 26 27 27 25 22 25 27 28 28 25 25 24 22 20 19 20 19 17 16 14 14 14 15 16 15 17 18 20 20 20 20 18 18 18 18 17 16 16 16 16 16 17 17
25 22 21 23 23 24 24 29 27 27 26 27 25 24 22 23 26 27 25 24 25 24 23 20 16 14 16 16 15 13 13 12 13 15 17 17 17 20 21 22 22 21 16 16 18 18 18 16 16 16 16 15 16 17
28 25 23 21 22 23 26 25 24 26 26 27 25 22 22 27 27 23 22 20 21 20 19 17 15 15 15 13 13 13 14 14 16 17 18 19 19 18 19 20 20 21 20 16 15 16 16 15 15 14 14 15 14 14
26 24 28 25 26 25 29 28 28 29 26 20 19 22 22 21 23 20 19 20 18 16 15 15 15 14 14 14 14 14 16 16 17 18 18 19 20 19 19 17 19 21 19 17 15 13 13 13 13 12 13 13 14 14
26 24 24 28 27 26 27 27 26 21 18 16 19 21 22 20 18 19 19 15 13 13 12 13 14 15 16 17 18 18 17 16 18 19 20 19 19 20 19 17 15 16 17 16 15 14 12 12 11 11 11 13 18 24
28 23 27 27 27 25 22 20 20 19 18 18 19 20 19 17 19 16 14 12 11 11 13 14 16 17 17 17 17 17 17 15 17 17 17 17 18 19 18 16 15 15 15 14 14 14 14 13 13 14 15 20 24 25
22 20 22 22 23 21 19 17 17 17 17 17 17 17 18 19 18 15 13 13 12 12 12 14 15 15 14 15 16 16 16 15 15 15 16 17 18 18 17 16 16 15 15 15 14 13 13 14 15 20 23 24 25 26
18 19 20 21 20 17 17 17 17 17 17 16 16 15 15 15 15 13 14 13 11 9 9 11 13 13 13 15 16 16 16 15 14 14 15 16 17 17 17 16 15 15 15 15 15 15 16 19 23 24 25 26 28 29
16 16 16 17 17 16 14 13 14 14 13 13 13 13 12 13 12 14 14 13 12 11 11 12 13 13 13 15 16 17 17 16 15 14 13 14 15 16 15 16 15 15 16 16 17 19 22 24 26 27 28 29 30 31
Wind_Direction
35 47 53 61 71 314 321 7 97 269 196 148 173 246 292 286 320 59 4 11 101 321 299 273 245 210 221 233 240 250 253 263 261 258 259 262 263 263 266 265 262 260 263 264 270 271 274 278 281 276 283 282 284 287
36 50 57 63 74 310 275 166 128 147 274 243 211 214 227 227 259 254 319 301 353 6 311 94 262 281 262 259 261 254 269 273 268 267 266 271 268 273 268 268 268 263 260 265 268 276 284 281 278 279 282 281 281 284
40 49 58 64 71 85 286 242 134 114 165 214 236 254 250 244 276 274 281 274 319 335 332 318 294 312 316 319 302 273 271 277 276 281 274 275 272 274 271 271 273 272 270 270 274 275 277 279 277 278 279 279 282 287
46 50 57 62 68 75 85 293 241 236 291 219 181 273 294 301 21 320 300 288 294 314 309 313 319 318 306 305 303 298 299 294 291 288 277 275 275 278 276 278 275 276 274 273 276 280 284 283 278 277 277 282 281 284
49 54 56 62 64 68 76 85 113 302 308 314 99 134 275 313 324 328 317 293 295 316 320 297 301 302 293 290 289 285 293 294 291 281 277 275 278 283 285 284 276 272 271 272 275 284 288 290 292 279 273 276 278 278
49 55 58 61 67 63 65 76 91 91 19 346 336 327 352 43 353 306 317 312 298 308 320 322 320 321 304 303 310 311 298 293 296 284 280 286 283 280 283 278 263 280 280 275 276 285 290 293 291 287 276 276 277 281
48 53 55 60 68 72 66 64 76 90 91 43 16 3 355 344 327 316 333 325 315 319 314 309 309 313 321 322 317 308 314 305 315 309 294 293 293 281 279 236 287 288 283 281 282 284 286 286 283 285 281 279 284 290
48 49 52 50 58 70 77 79 62 73 80 74 71 33 16 18 16 340 313 311 324 333 326 308 307 313 314 315 315 314 311 311 315 309 312 304 303 295 227 234 278 280 283 283 282 282 286 289 287 284 278 284 283 282
47 50 49 43 38 51 53 47 47 65 67 63 65 71 89 92 74 0 342 333 330 329 347 336 324 313 309 313 317 317 312 305 312 306 306 307 307 301 309 295 265 260 278 280 283 287 287 290 287 289 288 287 285 282
35 44 47 44 42 34 31 32 38 53 63 60 53 60 70 65 115 90 81 45 343 327 328 325 325 319 313 309 305 307 308 302 294 303 314 305 296 301 310 325 329 313 304 296 284 287 293 290 284 286 287 290 290 286
17 20 30 29 31 31 29 22 26 43 42 47 49 55 40 30 35 37 51 39 46 63 357 330 323 317 325 317 316 318 314 308 294 300 299 295 301 308 311 305 318 325 318 316 311 308 305 304 292 292 292 294 293 291
13 7 2 10 16 7 5 8 14 38 46 46 36 28 22 29 37 48 52 46 62 44 30 21 43 0 330 324 315 318 313 317 308 307 298 296 312 318 321 316 313 318 319 318 319 319 318 316 308 303 302 299 299 301
13 9 2 358 359 357 355 355 8 24 33 31 35 39 42 47 50 47 44 50 36 32 35 22 11 6 0 8 0 326 306 303 313 306 301 299 308 312 310 313 312 312 314 317 321 325 327 326 323 314 309 310 309 306
4 5 4 4 359 348 350 355 1 11 19 23 20 15 24 35 42 49 43 24 8 358 359 358 354 357 349 345 341 331 335 342 314 302 299 306 311 320 325 326 327 326 330 332 335 339 338 339 334 330 325 321 317 312
357 355 356 10 359 348 348 352 356 2 10 5 10 4 0 3 7 9 5 356 353 354 347 338 337 333 334 333 333 331 327 322 324 322 337 336 354 24 44 57 56 52 19 353 346 345 346 346 341 338 334 330 326 324
348 349 356 357 350 349 353 350 352 360 357 351 344 341 344 339 333 331 328 329 342 346 341 335 333 336 319 322 321 314 317 313 317 322 325 332 338 345 355 6 345 340 336 332 330 329 329 328 328 329 330 327 323 319
340 343 348 343 341 347 348 349 350 342 341 341 335 330 321 322 324 327 330 329 334 330 323 334 323 314 333 322 310 310 306 309 314 317 318 317 318 318 319 315 310 310 308 312 316 319 322 326 328 324 320 319 319 317
332 333 339 341 343 343 342 342 337 335 326 323 320 324 325 324 323 324 325 325 321 312 313 313 324 305 307 307 306 307 305 310 314 313 310 308 309 308 306 303 301 301 300 301 305 310 314 315 314 315 318 321 317 314
329 330 328 336 340 340 337 337 334 325 323 327 327 326 326 326 325 324 323 317 319 319 314 312 307 306 301 301 303 305 306 307 308 308 305 305 305 305 303 304 303 300 299 298 299 302 306 307 311 314 315 316 313 313
327 333 335 332 333 331 330 330 337 327 325 327 328 327 326 325 327 325 321 314 310 311 303 300 294 301 307 310 306 306 308 307 308 304 300 300 301 303 301 301 300 300 300 301 302 306 307 308 307 311 311 310 311 312
321 322 327 328 325 322 324 327 326 328 328 324 325 324 325 328 323 321 318 317 309 305 303 298 299 303 306 307 306 306 307 305 303 303 303 299 302 303 304 304 305 303 299 299 300 302 303 303 309 307 307 309 311 315
317 320 319 318 317 320 317 320 321 327 323 321 322 323 322 322 322 321 323 313 310 309 305 308 310 307 301 301 302 304 307 305 305 307 309 310 304 303 303 302 303 301 300 301 302 304 305 307 309 311 310 312 315 317
315 315 314 312 310 312 316 323 316 319 316 321 324 322 323 324 327 330 320 319 318 320 317 316 314 311 309 308 305 303 304 302 301 303 306 309 312 311 310 308 305 305 306 306 307 308 308 311 310 310 314 316 318 317
314 308 309 308 301 310 319 316 320 319 318 317 318 318 321 323 327 322 320 321 321 324 323 321 317 313 313 310 306 304 303 304 305 307 308 308 308 310 311 312 313 312 313 315 313 309 310 310 313 313 314 315 316 317
305 304 305 302 310 310 309 311 312 312 313 316 317 319 323 327 322 322 321 324 328 329 330 327 322 318 315 312 314 316 318 314 314 312 314 314 315 315 315 316 316 317 317 315 315 315 313 311 311 313 314 314 315 317
296 301 299 304 305 306 306 311 311 311 315 316 317 324 326 323 322 322 326 330 330 334 333 332 332 333 324 327 328 332 330 329 324 318 319 320 318 316 316 315 316 319 321 319 319 317 316 317 314 313 314 315 317 319
292 295 303 309 309 312 311 314 315 315 314 314 317 318 322 320 321 327 333 338 338 335 340 342 342 337 335 340 346 343 338 334 327 326 328 328 326 324 323 322 321 323 327 328 324 324 323 321 321 321 321 323 324 324
295 299 295 299 300 303 304 306 308 309 311 315 318 313 319 321 325 332 338 335 339 349 354 352 350 354 358 355 348 341 335 333 332 332 331 329 328 330 330 328 330 333 338 339 339 337 335 335 334 334 334 333 333 334
297 302 302 300 302 304 302 303 306 311 317 313 314 315 319 323 329 329 332 345 354 352 352 344 347 350 348 346 341 338 338 339 333 329 328 329 331 333 336 341 344 344 349 351 354 356 357 356 354 353 351 344 326 293
300 302 301 302 301 301 307 311 314 317 318 317 320 322 323 325 323 335 343 349 347 341 339 340 341 341 340 342 345 347 347 350 346 346 348 346 346 349 354 360 3 4 2 5 6 8 10 11 6 358 342 306 286 272
309 305 305 305 307 312 315 320 323 324 324 323 325 322 322 324 330 337 332 331 335 340 340 338 341 345 351 351 349 350 350 353 358 358 1 359 359 0 8 12 11 12 11 11 13 13 12 6 349 310 280 270 270 271
311 307 308 309 314 321 324 323 324 322 325 325 326 330 333 335 334 348 344 350 356 357 356 353 352 353 359 355 356 355 354 359 3 360 359 1 3 3 7 13 16 16 15 14 13 4 354 328 296 279 275 275 279 280
319 319 319 320 322 324 329 335 337 338 339 341 343 348 348 347 348 351 350 357 358 358 359 357 354 358 5 2 359 358 357 358 0 4 7 10 12 14 17 15 14 13 9 4 354 333 311 292 283 282 281 281 279 281